Погода Никольское

Погода Никольское : погода сейчас, прогноз погоды и архив. Всё, что Вы хотите узнать о погоде Никольское!

Хотите узнать прогноз погоды Никольское? Тогда Вам сюда: Погода Никольское

Поиск расширенной информации на нашем сайте:

Другие новости

Новости СМИ2

Главная страница сайта

Новости сайта

03.07.2017

Напоминаем, что на нашем специализированном сайте Метеоцентр.Азия вы можете получить высокодетализированные автоматические прогнозы погоды по пунктам России, СНГ и мира в авиационном формате (включающие направление и скорость ветра, видимость, явления погоды, количество и форму облачности, нижнюю и верхнюю границу облачности).

Рекомендуем: для Вас архив аудиокниг в UA-IX

Погода Никольское - сегодня

Время (UTC), дата Ветер
(°,м/с) 
Видим.   Явления Облачность Т
(°С)
Тd
(°С)
f(%) Тe
(°С)
Pmin
(гПа)
dP
(гПа)
Po
(мм)
O2
(г/м3)
Тmin Tmax R s Состояние
почвы
15 10.08.18 150 (ЮВ) н/о    н/о 
+11 +8.7 86 +11  1007.8  -0.4  754  291           
18 10.08.18 080 (В) 20000 м    9/9 600 м 
[Sc]
+10.2 +8.1 87 +10  1008  0.1  754  292           
00 11.08.18 040 (СВ) 20000 м    9/9 600 м 
[Sc]
+13.4 +9.3 76 +13  1009.7  0.7  756  289           
03 11.08.18 040 (СВ) 20000 м    8/8 600 м 
[Sc]
+13.1 +9.5 79 +13  1010  0.2  756  289           
12 11.08.18 010 (С) 20000 м    10/10 600 м 
[Sc]
+11.2 +10.2 94 +12  1012.9  0.9  758  292           
15 11.08.18 тихо ()   20000 м    10/10 600 м 
[Sc]
+11.4 +9.9 90 +12  1013.2  0.3  758  291           
18 11.08.18 300 (СЗ) 20000 м    10/10 600 м 
[Sc]
+11.3 +10.6 95 +14  1013.5  0.3  758  292           
03 12.08.18 290 (З) 20000 м    9/9 600 м 
[Cu Sc]
+13.6 +10.2 80 +14  1014.8  760  290           
06 12.08.18 300 (СЗ) 20000 м  {ливн. осадки}  9/9 600 м кучево-дожд. 
[Cb cap]
+13.1 +10.5 84 +14  1015.5  0.6  760  290           
12 12.08.18 240 (ЮЗ) 20000 м    8/8 600 м 
[Sc]
+12.4 +9.7 84 +14  1017.4  0.8  761  292           
15 12.08.18 200 (Ю) 20000 м    3/3 600 м 
[Sc]
+12 +10.8 92 +13  1017.5  0.1  761  292           
18 12.08.18 200 (Ю) 20000 м    3/3 600 м 
[Sc]
+12.3 +11.2 93 +13  1017.4  761  292           
09 13.08.18 200 (Ю) 8-10{11}  20000 м    8/4 600 м средняя 
[Sc|Ac trans]
+12.4 +11.5 94 +14  1019.9  0.8  763  292    +14.1       
03 14.08.18 190 (Ю) 20000 м    8/5 600 м верхняя 
[Cu med, cong|Ci]
+13.4 +10.8 84 +14  1023.7  0.4  766  292           
06 14.08.18 170 (Ю) 20000 м    8/4 600 м средняя, верхняя 
[Cu med, cong|Ac trans|Ci]
+13.3 +10.8 85 +14  1024  0.3  766  292           
12 14.08.18 150 (ЮВ) 20000 м    10/10 600 м 
[Sc]
+12.1 +10.3 89 +12  1024.8  0.1  767  294           
15 14.08.18 120 (ЮВ) 20000 м    10/10 600 м 
[Sc]
+11.6 +8.1 79 +11  1024.8  767  295           
18 14.08.18 090 (В) 20000 м    10/8 600 м средняя 
[Sc|Ac und]
+10.6 +8.2 85 +10  1024.1  -0.7  766  296           
03 15.08.18 160 (Ю) 10 км  слаб. ливневой дождь  10/10 300 м кучево-дожд. 
[Cb cap]
+11.6 +10 90 +12  1022.8  -1.3  765  294           
06 15.08.18 110 (В) 10 км  слаб. ливневой дождь  10/10 300 м кучево-дожд. 
[Cb cap]
+12 +9.5 85 +11  1021.5  -1.3  764  293           
12 15.08.18 090 (В) 20000 м  {ливн. осадки}  10/10 600 м 
[Sc]
+10.9 +8.9 87 +10  1019.2  -1.5  763  294           
15 15.08.18 100 (В) 20000 м  {ливн. осадки}  10/10 600 м 
[Sc]
+11.1 +10.2 94 +11  1017.4  -1.8  761  293           
18 15.08.18 140 (ЮВ) 20000 м    10/10 600 м 
[Sc]
+11.1 +9.9 92 +12  1016.2  -1.2  761  293           
21 15.08.18 090 (В) 4{13}  10 км  слаб. морось  10/10 100 м 
[St]
+10.8 +9.8 94 +11  1015.6  -0.6  760  293  +10.7       
09 16.08.18 080 (В) 8-13{14}  10 км  слаб. ливневой дождь  10/10 300 м кучево-дожд. 
[Cb cap]
+11.3 +10.5 95 +12  1010.3  -0.2  756  291    +12.5     
Время (UTC), дата Ветер
(°,м/с) 
Видим.   Явления Облачность Т
(°С)
Тd
(°С)
f(%) Тe
(°С)
Pmin
(гПа)
dP
(гПа)
Po
(мм)
O2
(г/м3)
Тmin Tmax R s Состояние
почвы

Для получения пояснительной информации подведите курсор к названию столбца.

ПОГОДА Никольское - архив

Всё, что Вы хотите узнать о погоде Никольское - удобно и подробно!

Выберите нужную дату (начиная с 1 января 2015* года) и нажмите кнопку "Найти".
Будут отображены архивные сводки погоды по пункту Никольское, начиная с указанной даты.


Отображать данные в формате CSV (для использования в таблицах Excel)


Внимание! Наш архив погоды предназначен исключительно для личного некоммерческого использования в познавательных целях. Если Вам необходимы официальные справки о состоянии погоды (для производственных, юридических, коммерческих и т.п. целей), обращайтесь в органы Росгидромета.

*Примечание: данная дата относится к архиву по метеостанциям СССР (Россия, СНГ, Балтия).
Архив по метеостанциям Зарубежной Европы и Азии (кроме Китая) хранится 10 дней, по другим регионам земного шара (Китай, Африка, Америка, Австралия, Океания) - 1 день.

Никольское - район местоположения метеостанции


Название, широта, долгота, высота метеостанции:
Никольское 55.2°ш. 166°д. 18 м над ур. моря [Российская Федерация]

Дополнительная информация

В oтличие oт бoльшинства пoгoдных сайтoв мы публикуем пoдрoбную метеoинфoрмацию в детальнoм прoфессиoнальнoм фoрмате.

Характеристики температуры и влажнoсти вoздуха измеряются на высoте 2 м в тени вдали oт зданий и деревьев.
Скoрoсть ветра измеряется на высoте 10 м (на урoвне рoста челoвека скoрoсть ветра ниже в 1.5-2 раза). Если метеoстанция нахoдится в гoрoде или в лесу, тo скoрoсть ветра занижена на 2-4 м/с пo сравнению с oткрытым местoм. Скoрoсть ветра над акватoриями крупных рек и oзёр, а также на вершинах хoлмoв на 2-5 м/с выше, чем в oбычных услoвиях.
Атмoсфернoе давление в разных тoчках местнoсти мoжет значительнo oтличаться oт давления на метеoстанции, в зависимoсти oт услoвий рельефа (при пoдъёме на 10 м давление пoнижается примернo на 1 мм рт.ст.).